| time (UTC) | temp F | wind direction | speed knots | gust knots | rain 1hr in | rain 24hr in | rain mn in | humidity % | barometer mb |
| 20260504001539 | 37 | 300 | 1.7 | 0.0 | 0.00 | 0.00 | 0.00 | 85 | 997.9 |
| 20260504000032 | 37 | 268 | 2.6 | 0.0 | 0.00 | 0.00 | 0.00 | 84 | 998.1 |
| 20260503234534 | 38 | 292 | 2.6 | 0.0 | 0.00 | 0.00 | 0.00 | 83 | 998.1 |
| 20260503233027 | 38 | 294 | 3.5 | 0.0 | 0.00 | 0.00 | 0.00 | 81 | 998.0 |
| 20260503231525 | 39 | 269 | 1.7 | 0.0 | 0.00 | 0.00 | 0.00 | 79 | 998.1 |
| 20260503230026 | 40 | 302 | 2.6 | 0.0 | 0.00 | 0.00 | 0.00 | 77 | 998.1 |
| 20260503224517 | 41 | 270 | 3.5 | 0.0 | 0.00 | 0.00 | 0.00 | 73 | 998.1 |
| 20260503223015 | 41 | 223 | 3.5 | 0.0 | 0.00 | 0.00 | 0.00 | 69 | 998.1 |
| 20260503221513 | 41 | 198 | 5.2 | 0.0 | 0.00 | 0.00 | 0.00 | 65 | 998.2 |
| 20260503220020 | 41 | 193 | 4.3 | 0.0 | 0.00 | 0.00 | 0.28 | 65 | 998.2 |
| 20260503214520 | 41 | 183 | 0.9 | 0.0 | 0.00 | 0.00 | 0.28 | 65 | 998.1 |
| 20260503213013 | 42 | 147 | 2.6 | 0.0 | 0.00 | 0.00 | 0.28 | 64 | 998.2 |
| 20260503211507 | 41 | 186 | 3.5 | 0.0 | 0.00 | 0.00 | 0.28 | 67 | 998.2 |
| 20260503210011 | 40 | 115 | 3.5 | 0.0 | 0.00 | 0.00 | 0.28 | 67 | 998.3 |
| 20260503204505 | 40 | 167 | 3.5 | 0.0 | 0.00 | 0.00 | 0.28 | 67 | 998.6 |
| 20260503203003 | 40 | 176 | 4.3 | 0.0 | 0.00 | 0.00 | 0.28 | 66 | 998.7 |
| 20260503201502 | 40 | 173 | 3.5 | 0.0 | 0.00 | 0.00 | 0.28 | 67 | 998.8 |
| 20260503200100 | 40 | 162 | 4.3 | 0.0 | 0.00 | 0.00 | 0.28 | 67 | 999.1 |
| 20260503194624 | 40 | 130 | 3.5 | 0.0 | 0.00 | 0.00 | 0.28 | 66 | 999.2 |
| 20260503193101 | 40 | 131 | 5.2 | 0.0 | 0.00 | 0.00 | 0.28 | 65 | 999.4 |
| 20260503191608 | 40 | 152 | 4.3 | 0.0 | 0.00 | 0.00 | 0.28 | 66 | 999.4 |
| 20260503190058 | 40 | 173 | 4.3 | 0.0 | 0.00 | 0.00 | 0.28 | 67 | 999.4 |
| 20260503184555 | 40 | 170 | 3.5 | 0.0 | 0.00 | 0.00 | 0.28 | 68 | 999.7 |
| 20260503183057 | 40 | 157 | 3.5 | 0.0 | 0.00 | 0.00 | 0.28 | 69 | 999.9 |
| 20260503181604 | 40 | 150 | 3.5 | 0.0 | 0.00 | 0.00 | 0.28 | 70 | 1000.0 |
| 20260503180052 | 40 | 143 | 3.5 | 0.0 | 0.00 | 0.00 | 0.28 | 72 | 1000.1 |
| 20260503174553 | 40 | 186 | 2.6 | 0.0 | 0.00 | 0.00 | 0.28 | 75 | 1000.2 |
| 20260503173045 | 40 | 78 | 6.1 | 0.0 | 0.00 | 0.00 | 0.28 | 76 | 1000.3 |
| 20260503171543 | 40 | 102 | 5.2 | 0.0 | 0.00 | 0.00 | 0.28 | 76 | 1000.7 |
| 20260503081553 | 36 | 237 | 4.3 | 0.0 | 0.00 | 0.00 | 0.13 | 86 | 1004.4 |
| 20260503071550 | 37 | 178 | 4.3 | 0.0 | 0.00 | 0.00 | 0.11 | 84 | 1004.2 |
| 20260503054540 | 35 | 304 | 2.6 | 0.0 | 0.00 | 0.00 | 0.06 | 89 | 1004.1 |
| 20260503053038 | 34 | 317 | 3.5 | 0.0 | 0.00 | 0.00 | 0.06 | 90 | 1004.3 |
| 20260503051536 | 34 | 308 | 4.3 | 0.0 | 0.00 | 0.00 | 0.06 | 90 | 1004.4 |
| 20260503050036 | 34 | 24 | 5.2 | 0.0 | 0.00 | 0.00 | 0.05 | 91 | 1004.5 |
| 20260503044547 | 33 | 284 | 1.7 | 0.0 | 0.00 | 0.00 | 0.04 | 92 | 1004.3 |
| 20260503043035 | 33 | 280 | 2.6 | 0.0 | 0.00 | 0.00 | 0.03 | 92 | 1004.3 |
| 20260503041537 | 33 | 264 | 3.5 | 0.0 | 0.00 | 0.00 | 0.03 | 93 | 1004.5 |
| 20260503040040 | 33 | 277 | 1.7 | 0.0 | 0.00 | 0.00 | 0.03 | 94 | 1004.3 |
| 20260503034533 | 32 | 277 | 1.7 | 0.0 | 0.00 | 0.00 | 0.03 | 93 | 1004.4 |
| 20260503033036 | 32 | 245 | 1.7 | 0.0 | 0.00 | 0.00 | 0.02 | 93 | 1004.4 |
| 20260503031531 | 32 | 242 | 2.6 | 0.0 | 0.00 | 0.00 | 0.02 | 93 | 1004.4 |
| 20260503030034 | 32 | 296 | 2.6 | 0.0 | 0.00 | 0.00 | 0.02 | 93 | 1004.7 |
| 20260503024536 | 32 | 301 | 0.0 | 0.0 | 0.00 | 0.00 | 0.02 | 93 | 1004.2 |
| 20260503023029 | 32 | 301 | 0.0 | 0.0 | 0.00 | 0.00 | 0.02 | 93 | 1004.4 |
| 20260503021528 | 32 | 301 | 0.9 | 0.0 | 0.00 | 0.00 | 0.02 | 93 | 1004.6 |
| 20260503020028 | 32 | 300 | 1.7 | 0.0 | 0.00 | 0.00 | 0.02 | 93 | 1004.7 |
| 20260503014530 | 32 | 299 | 3.5 | 0.0 | 0.00 | 0.00 | 0.02 | 93 | 1004.7 |
| 20260503013028 | 33 | 283 | 0.9 | 0.0 | 0.00 | 0.00 | 0.02 | 93 | 1004.6 |
| 20260503011532 | 32 | 285 | 1.7 | 0.0 | 0.00 | 0.00 | 0.02 | 93 | 1004.4 |
| 20260503010024 | 32 | 313 | 0.9 | 0.0 | 0.00 | 0.00 | 0.02 | 93 | 1004.5 |
| 20260503004524 | 33 | 234 | 1.7 | 0.0 | 0.00 | 0.00 | 0.02 | 93 | 1004.4 |
| 20260503003023 | 33 | 240 | 1.7 | 0.0 | 0.00 | 0.00 | 0.02 | 93 | 1004.6 |